contact:dominique.lefevre@mio.osupytheas.fr, maurice.libes@osupytheas.fr, didier.mallarino@osupytheas.fr
Project:EMSO http://www.emso-fr.org/EMSO-France
Depth: 2436.0 m
Title:EMSO Ligure Ouest : Data MII capteur MICROCAT
DateTime_Computer,Latitude,Longitude,Temperature,Conductivity,Pressure,DateTime_Instrument
DateTime_Computer,Latitude,Longitude,degC,S m-1,dbar,DateTime_Instrument
2023-01-26T00:00:21Z,42.805,6.029,13.3021,4.60080,2470.577,2023-1-26T02:06:47Z
2023-01-26T00:03:24Z,42.805,6.029,13.3019,4.60079,2470.577,2023-1-26T02:09:50Z
2023-01-26T00:06:27Z,42.805,6.029,13.3024,4.60084,2470.53,2023-1-26T02:12:53Z
2023-01-26T00:09:30Z,42.805,6.029,13.3024,4.60079,2470.591,2023-1-26T02:15:56Z
2023-01-26T00:12:33Z,42.805,6.029,13.3023,4.60077,2470.553,2023-1-26T02:18:59Z
2023-01-26T00:15:36Z,42.805,6.029,13.3021,4.60078,2470.553,2023-1-26T02:22:02Z
2023-01-26T00:18:39Z,42.805,6.029,13.3024,4.60079,2470.53,2023-1-26T02:25:05Z
2023-01-26T00:21:42Z,42.805,6.029,13.3024,4.60078,2470.567,2023-1-26T02:28:08Z
2023-01-26T00:24:45Z,42.805,6.029,13.3019,4.60079,2470.553,2023-1-26T02:31:11Z
2023-01-26T00:27:49Z,42.805,6.029,13.3019,4.60077,2470.591,2023-1-26T02:34:15Z
2023-01-26T00:30:52Z,42.805,6.029,13.3022,4.60078,2470.53,2023-1-26T02:37:18Z
2023-01-26T00:33:55Z,42.805,6.029,13.3018,4.60076,2470.539,2023-1-26T02:40:21Z
2023-01-26T00:36:58Z,42.805,6.029,13.3025,4.60079,2470.53,2023-1-26T02:43:24Z
2023-01-26T00:40:01Z,42.805,6.029,13.3023,4.60078,2470.553,2023-1-26T02:46:27Z
2023-01-26T00:43:04Z,42.805,6.029,13.3019,4.60076,2470.544,2023-1-26T02:49:30Z
2023-01-26T00:46:07Z,42.805,6.029,13.3021,4.60081,2470.507,2023-1-26T02:52:33Z
2023-01-26T00:49:10Z,42.805,6.029,13.3016,4.60081,2470.516,2023-1-26T02:55:36Z
2023-01-26T00:52:13Z,42.805,6.029,13.3024,4.60079,2470.53,2023-1-26T02:58:39Z
2023-01-26T00:55:16Z,42.805,6.029,13.3021,4.60077,2470.507,2023-1-26T03:01:42Z
2023-01-26T00:58:19Z,42.805,6.029,13.3021,4.60076,2470.507,2023-1-26T03:04:45Z
2023-01-26T01:01:22Z,42.805,6.029,13.3022,4.60076,2470.52,2023-1-26T03:07:48Z
2023-01-26T01:04:26Z,42.805,6.029,13.3022,4.60077,2470.52,2023-1-26T03:10:52Z
2023-01-26T01:07:29Z,42.805,6.029,13.3021,4.60079,2470.53,2023-1-26T03:13:55Z
2023-01-26T01:10:32Z,42.805,6.029,13.3021,4.60078,2470.544,2023-1-26T03:16:58Z
2023-01-26T01:13:35Z,42.805,6.029,13.3024,4.60082,2470.483,2023-1-26T03:20:01Z
2023-01-26T01:16:38Z,42.805,6.029,13.3021,4.60079,2470.516,2023-1-26T03:23:04Z
2023-01-26T01:19:41Z,42.805,6.029,13.3022,4.60075,2470.544,2023-1-26T03:26:07Z
2023-01-26T01:22:44Z,42.805,6.029,13.3020,4.60079,2470.52,2023-1-26T03:29:10Z
2023-01-26T01:25:47Z,42.805,6.029,13.3022,4.60081,2470.497,2023-1-26T03:32:13Z
2023-01-26T01:28:50Z,42.805,6.029,13.3019,4.60077,2470.497,2023-1-26T03:35:16Z
2023-01-26T01:31:53Z,42.805,6.029,13.3023,4.60079,2470.497,2023-1-26T03:38:19Z
2023-01-26T01:34:56Z,42.805,6.029,13.3017,4.60081,2470.507,2023-1-26T03:41:22Z
2023-01-26T01:38:00Z,42.805,6.029,13.3019,4.60080,2470.483,2023-1-26T03:44:26Z
2023-01-26T01:41:03Z,42.805,6.029,13.3022,4.60077,2470.497,2023-1-26T03:47:29Z
2023-01-26T01:44:06Z,42.805,6.029,13.3019,4.60075,2470.53,2023-1-26T03:50:32Z
2023-01-26T01:47:09Z,42.805,6.029,13.3024,4.60079,2470.52,2023-1-26T03:53:35Z
2023-01-26T01:50:12Z,42.805,6.029,13.3019,4.60077,2470.544,2023-1-26T03:56:38Z
2023-01-26T01:53:15Z,42.805,6.029,13.3024,4.60075,2470.507,2023-1-26T03:59:41Z
2023-01-26T01:56:18Z,42.805,6.029,13.3021,4.60080,2470.46,2023-1-26T04:02:44Z
2023-01-26T01:59:21Z,42.805,6.029,13.3019,4.60077,2470.483,2023-1-26T04:05:47Z
2023-01-26T02:02:24Z,42.805,6.029,13.3022,4.60078,2470.507,2023-1-26T04:08:50Z
2023-01-26T02:05:27Z,42.805,6.029,13.3023,4.60077,2470.52,2023-1-26T04:11:53Z
2023-01-26T02:08:30Z,42.805,6.029,13.3022,4.60079,2470.483,2023-1-26T04:14:56Z
2023-01-26T02:11:33Z,42.805,6.029,13.3025,4.60078,2470.52,2023-1-26T04:17:59Z
2023-01-26T02:14:37Z,42.805,6.029,13.3024,4.60078,2470.474,2023-1-26T04:21:03Z
2023-01-26T02:17:40Z,42.805,6.029,13.3019,4.60080,2470.507,2023-1-26T04:24:06Z
2023-01-26T02:20:43Z,42.805,6.029,13.3023,4.60080,2470.497,2023-1-26T04:27:09Z
2023-01-26T02:23:46Z,42.805,6.029,13.3023,4.60078,2470.497,2023-1-26T04:30:12Z
2023-01-26T02:26:49Z,42.805,6.029,13.3018,4.60081,2470.497,2023-1-26T04:33:15Z
2023-01-26T02:29:52Z,42.805,6.029,13.3022,4.60081,2470.483,2023-1-26T04:36:18Z
2023-01-26T02:32:55Z,42.805,6.029,13.3023,4.60079,2470.52,2023-1-26T04:39:21Z
2023-01-26T02:35:58Z,42.805,6.029,13.3019,4.60078,2470.497,2023-1-26T04:42:24Z
2023-01-26T02:39:01Z,42.805,6.029,13.3024,4.60078,2470.483,2023-1-26T04:45:27Z
2023-01-26T02:42:04Z,42.805,6.029,13.3026,4.60081,2470.483,2023-1-26T04:48:30Z
2023-01-26T02:45:07Z,42.805,6.029,13.3022,4.60083,2470.46,2023-1-26T04:51:33Z
2023-01-26T02:48:10Z,42.805,6.029,13.3023,4.60083,2470.483,2023-1-26T04:54:37Z
2023-01-26T02:51:14Z,42.805,6.029,13.3020,4.60081,2470.46,2023-1-26T04:57:40Z
2023-01-26T02:54:17Z,42.805,6.029,13.3025,4.60079,2470.46,2023-1-26T05:00:43Z
2023-01-26T02:57:20Z,42.805,6.029,13.3021,4.60086,2470.46,2023-1-26T05:03:46Z
2023-01-26T03:00:23Z,42.805,6.029,13.3023,4.60078,2470.483,2023-1-26T05:06:49Z
2023-01-26T03:03:26Z,42.805,6.029,13.3023,4.60082,2470.483,2023-1-26T05:09:52Z
2023-01-26T03:06:29Z,42.805,6.029,13.3020,4.60085,2470.46,2023-1-26T05:12:55Z
2023-01-26T03:09:32Z,42.805,6.029,13.3021,4.60084,2470.46,2023-1-26T05:15:58Z
2023-01-26T03:12:35Z,42.805,6.029,13.3024,4.60086,2470.46,2023-1-26T05:19:01Z
2023-01-26T03:15:38Z,42.805,6.029,13.3022,4.60079,2470.483,2023-1-26T05:22:04Z
2023-01-26T03:18:41Z,42.805,6.029,13.3023,4.60077,2470.474,2023-1-26T05:25:07Z
2023-01-26T03:21:44Z,42.805,6.029,13.3019,4.60078,2470.46,2023-1-26T05:28:11Z
2023-01-26T03:24:48Z,42.805,6.029,13.3019,4.60079,2470.474,2023-1-26T05:31:14Z
2023-01-26T03:27:51Z,42.805,6.029,13.3022,4.60080,2470.474,2023-1-26T05:34:17Z
2023-01-26T03:30:54Z,42.805,6.029,13.3021,4.60076,2470.46,2023-1-26T05:37:20Z
2023-01-26T03:33:57Z,42.805,6.029,13.3021,4.60081,2470.46,2023-1-26T05:40:23Z
2023-01-26T03:37:00Z,42.805,6.029,13.3015,4.60079,2470.497,2023-1-26T05:43:26Z
2023-01-26T03:40:03Z,42.805,6.029,13.3018,4.60081,2470.413,2023-1-26T05:46:29Z
2023-01-26T03:43:06Z,42.805,6.029,13.3021,4.60084,2470.46,2023-1-26T05:49:32Z
2023-01-26T03:46:09Z,42.805,6.029,13.3019,4.60080,2470.474,2023-1-26T05:52:35Z
2023-01-26T03:49:12Z,42.805,6.029,13.3020,4.60081,2470.437,2023-1-26T05:55:38Z
2023-01-26T03:52:15Z,42.805,6.029,13.3026,4.60081,2470.497,2023-1-26T05:58:41Z
2023-01-26T03:55:18Z,42.805,6.029,13.3022,4.60081,2470.474,2023-1-26T06:01:44Z
2023-01-26T03:58:21Z,42.805,6.029,13.3022,4.60084,2470.413,2023-1-26T06:04:48Z
2023-01-26T04:01:25Z,42.805,6.029,13.3024,4.60080,2470.474,2023-1-26T06:07:51Z
2023-01-26T04:04:28Z,42.805,6.029,13.3021,4.60084,2470.474,2023-1-26T06:10:54Z
2023-01-26T04:07:31Z,42.805,6.029,13.3024,4.60082,2470.474,2023-1-26T06:13:57Z
2023-01-26T04:10:34Z,42.805,6.029,13.3024,4.60082,2470.45,2023-1-26T06:17:00Z
2023-01-26T04:13:37Z,42.805,6.029,13.3022,4.60079,2470.474,2023-1-26T06:20:03Z
2023-01-26T04:16:40Z,42.805,6.029,13.3020,4.60078,2470.46,2023-1-26T06:23:06Z
2023-01-26T04:19:43Z,42.805,6.029,13.3019,4.60077,2470.413,2023-1-26T06:26:09Z
2023-01-26T04:22:46Z,42.805,6.029,13.3019,4.60076,2470.437,2023-1-26T06:29:12Z
2023-01-26T04:25:49Z,42.805,6.029,13.3024,4.60078,2470.46,2023-1-26T06:32:15Z
2023-01-26T04:28:52Z,42.805,6.029,13.3018,4.60077,2470.474,2023-1-26T06:35:18Z
2023-01-26T04:31:55Z,42.805,6.029,13.3020,4.60079,2470.427,2023-1-26T06:38:22Z
2023-01-26T04:34:58Z,42.805,6.029,13.3022,4.60079,2470.413,2023-1-26T06:41:25Z
2023-01-26T04:38:02Z,42.805,6.029,13.3020,4.60079,2470.46,2023-1-26T06:44:28Z
2023-01-26T04:41:05Z,42.805,6.029,13.3020,4.60079,2470.437,2023-1-26T06:47:31Z
2023-01-26T04:44:08Z,42.805,6.029,13.3024,4.60079,2470.413,2023-1-26T06:50:34Z
2023-01-26T04:47:11Z,42.805,6.029,13.3023,4.60079,2470.437,2023-1-26T06:53:37Z
2023-01-26T04:50:14Z,42.805,6.029,13.3020,4.60080,2470.45,2023-1-26T06:56:40Z
2023-01-26T04:53:17Z,42.805,6.029,13.3020,4.60079,2470.437,2023-1-26T06:59:43Z
2023-01-26T04:56:20Z,42.805,6.029,13.3022,4.60080,2470.45,2023-1-26T07:02:46Z
2023-01-26T04:59:23Z,42.805,6.029,13.3028,4.60080,2470.413,2023-1-26T07:05:49Z
2023-01-26T05:02:26Z,42.805,6.029,13.3024,4.60079,2470.427,2023-1-26T07:08:52Z
2023-01-26T05:05:29Z,42.805,6.029,13.3020,4.60077,2470.437,2023-1-26T07:11:55Z
2023-01-26T05:08:32Z,42.805,6.029,13.3022,4.60077,2470.46,2023-1-26T07:14:59Z
2023-01-26T05:11:35Z,42.805,6.029,13.3022,4.60078,2470.45,2023-1-26T07:18:02Z
2023-01-26T05:14:39Z,42.805,6.029,13.3021,4.60078,2470.427,2023-1-26T07:21:05Z
2023-01-26T05:17:42Z,42.805,6.029,13.3020,4.60079,2470.45,2023-1-26T07:24:08Z
2023-01-26T05:20:45Z,42.805,6.029,13.3022,4.60077,2470.474,2023-1-26T07:27:11Z
2023-01-26T05:23:48Z,42.805,6.029,13.3021,4.60077,2470.437,2023-1-26T07:30:14Z
2023-01-26T05:26:51Z,42.805,6.029,13.3019,4.60081,2470.404,2023-1-26T07:33:17Z
2023-01-26T05:29:54Z,42.805,6.029,13.3025,4.60079,2470.474,2023-1-26T07:36:20Z
2023-01-26T05:32:57Z,42.805,6.029,13.3017,4.60075,2470.483,2023-1-26T07:39:23Z
2023-01-26T05:36:00Z,42.805,6.029,13.3026,4.60077,2470.437,2023-1-26T07:42:26Z
2023-01-26T05:39:03Z,42.805,6.029,13.3021,4.60077,2470.437,2023-1-26T07:45:29Z
2023-01-26T05:42:06Z,42.805,6.029,13.3019,4.60079,2470.437,2023-1-26T07:48:33Z
2023-01-26T05:45:09Z,42.805,6.029,13.3022,4.60077,2470.45,2023-1-26T07:51:36Z
2023-01-26T05:48:13Z,42.805,6.029,13.3021,4.60079,2470.474,2023-1-26T07:54:39Z
2023-01-26T05:51:16Z,42.805,6.029,13.3023,4.60077,2470.46,2023-1-26T07:57:42Z
2023-01-26T05:54:19Z,42.805,6.029,13.3023,4.60078,2470.497,2023-1-26T08:00:45Z
2023-01-26T05:57:22Z,42.805,6.029,13.3026,4.60079,2470.474,2023-1-26T08:03:48Z
2023-01-26T06:00:25Z,42.805,6.029,13.3020,4.60080,2470.474,2023-1-26T08:06:51Z
2023-01-26T06:03:28Z,42.805,6.029,13.3019,4.60078,2470.46,2023-1-26T08:09:54Z
2023-01-26T06:06:31Z,42.805,6.029,13.3023,4.60078,2470.474,2023-1-26T08:12:57Z
2023-01-26T06:09:34Z,42.805,6.029,13.3021,4.60076,2470.483,2023-1-26T08:16:00Z
2023-01-26T06:12:37Z,42.805,6.029,13.3021,4.60078,2470.497,2023-1-26T08:19:03Z
2023-01-26T06:15:40Z,42.805,6.029,13.3021,4.60077,2470.46,2023-1-26T08:22:07Z
2023-01-26T06:18:43Z,42.805,6.029,13.3024,4.60077,2470.507,2023-1-26T08:25:10Z
2023-01-26T06:21:46Z,42.805,6.029,13.3020,4.60077,2470.483,2023-1-26T08:28:13Z
2023-01-26T06:24:50Z,42.805,6.029,13.3021,4.60074,2470.483,2023-1-26T08:31:16Z
2023-01-26T06:27:53Z,42.805,6.029,13.3020,4.60076,2470.483,2023-1-26T08:34:19Z
2023-01-26T06:30:56Z,42.805,6.029,13.3021,4.60076,2470.45,2023-1-26T08:37:22Z
2023-01-26T06:33:59Z,42.805,6.029,13.3023,4.60077,2470.474,2023-1-26T08:40:25Z
2023-01-26T06:37:02Z,42.805,6.029,13.3018,4.60075,2470.497,2023-1-26T08:43:28Z
2023-01-26T06:40:05Z,42.805,6.029,13.3024,4.60076,2470.483,2023-1-26T08:46:31Z
2023-01-26T06:43:08Z,42.805,6.029,13.3025,4.60075,2470.52,2023-1-26T08:49:34Z
2023-01-26T06:46:11Z,42.805,6.029,13.3024,4.60076,2470.507,2023-1-26T08:52:37Z
2023-01-26T06:49:14Z,42.805,6.029,13.3025,4.60076,2470.53,2023-1-26T08:55:40Z
2023-01-26T06:52:17Z,42.805,6.029,13.3021,4.60076,2470.52,2023-1-26T08:58:44Z
2023-01-26T06:55:20Z,42.805,6.029,13.3019,4.60077,2470.507,2023-1-26T09:01:47Z
2023-01-26T06:58:24Z,42.805,6.029,13.3023,4.60076,2470.507,2023-1-26T09:04:50Z
2023-01-26T07:01:27Z,42.805,6.029,13.3021,4.60076,2470.507,2023-1-26T09:07:53Z
2023-01-26T07:04:30Z,42.805,6.029,13.3021,4.60078,2470.483,2023-1-26T09:10:56Z
2023-01-26T07:07:33Z,42.805,6.029,13.3021,4.60077,2470.507,2023-1-26T09:13:59Z
2023-01-26T07:10:36Z,42.805,6.029,13.3023,4.60076,2470.52,2023-1-26T09:17:02Z
2023-01-26T07:13:39Z,42.805,6.029,13.3021,4.60077,2470.507,2023-1-26T09:20:05Z
2023-01-26T07:16:42Z,42.805,6.029,13.3018,4.60077,2470.53,2023-1-26T09:23:08Z
2023-01-26T07:19:45Z,42.805,6.029,13.3024,4.60079,2470.553,2023-1-26T09:26:11Z
2023-01-26T07:22:48Z,42.805,6.029,13.3024,4.60079,2470.577,2023-1-26T09:29:14Z
2023-01-26T07:25:51Z,42.805,6.029,13.3024,4.60079,2470.53,2023-1-26T09:32:18Z
2023-01-26T07:28:54Z,42.805,6.029,13.3021,4.60077,2470.544,2023-1-26T09:35:21Z
2023-01-26T07:31:57Z,42.805,6.029,13.3021,4.60077,2470.544,2023-1-26T09:38:24Z
2023-01-26T07:35:01Z,42.805,6.029,13.3023,4.60077,2470.591,2023-1-26T09:41:27Z
2023-01-26T07:38:04Z,42.805,6.029,13.3023,4.60077,2470.544,2023-1-26T09:44:30Z
2023-01-26T07:41:07Z,42.805,6.029,13.3024,4.60077,2470.6,2023-1-26T09:47:33Z
2023-01-26T07:44:10Z,42.805,6.029,13.3024,4.60080,2470.553,2023-1-26T09:50:36Z
2023-01-26T07:47:13Z,42.805,6.029,13.3023,4.60076,2470.591,2023-1-26T09:53:39Z
2023-01-26T07:50:16Z,42.805,6.029,13.3023,4.60078,2470.544,2023-1-26T09:56:42Z
2023-01-26T07:53:19Z,42.805,6.029,13.3022,4.60078,2470.53,2023-1-26T09:59:45Z
2023-01-26T07:56:22Z,42.805,6.029,13.3021,4.60079,2470.577,2023-1-26T10:02:48Z
2023-01-26T07:59:25Z,42.805,6.029,13.3022,4.60078,2470.577,2023-1-26T10:05:51Z
2023-01-26T08:02:28Z,42.805,6.029,13.3022,4.60077,2470.553,2023-1-26T10:08:55Z
2023-01-26T08:05:31Z,42.805,6.029,13.3022,4.60075,2470.614,2023-1-26T10:11:58Z
2023-01-26T08:08:35Z,42.805,6.029,13.3021,4.60079,2470.614,2023-1-26T10:15:01Z
2023-01-26T08:11:38Z,42.805,6.029,13.3024,4.60078,2470.614,2023-1-26T10:18:04Z
2023-01-26T08:14:41Z,42.805,6.029,13.3021,4.60077,2470.577,2023-1-26T10:21:07Z
2023-01-26T08:17:44Z,42.805,6.029,13.3021,4.60077,2470.6,2023-1-26T10:24:10Z
2023-01-26T08:20:47Z,42.805,6.029,13.3022,4.60077,2470.637,2023-1-26T10:27:13Z
2023-01-26T08:23:50Z,42.805,6.029,13.3021,4.60077,2470.624,2023-1-26T10:30:16Z
2023-01-26T08:26:53Z,42.805,6.029,13.3022,4.60077,2470.614,2023-1-26T10:33:19Z
2023-01-26T08:29:56Z,42.805,6.029,13.3021,4.60074,2470.624,2023-1-26T10:36:22Z
2023-01-26T08:32:59Z,42.805,6.029,13.3020,4.60077,2470.637,2023-1-26T10:39:26Z
2023-01-26T08:36:02Z,42.805,6.029,13.3021,4.60075,2470.684,2023-1-26T10:42:29Z
2023-01-26T08:39:05Z,42.805,6.029,13.3021,4.60075,2470.624,2023-1-26T10:45:32Z
2023-01-26T08:42:09Z,42.805,6.029,13.3021,4.60075,2470.67,2023-1-26T10:48:35Z
2023-01-26T08:45:12Z,42.805,6.029,13.3020,4.60074,2470.624,2023-1-26T10:51:38Z
2023-01-26T08:48:15Z,42.805,6.029,13.3021,4.60075,2470.67,2023-1-26T10:54:41Z
2023-01-26T08:51:18Z,42.805,6.029,13.3025,4.60074,2470.684,2023-1-26T10:57:44Z
2023-01-26T08:54:21Z,42.805,6.029,13.3019,4.60077,2470.67,2023-1-26T11:00:47Z
2023-01-26T08:57:24Z,42.805,6.029,13.3019,4.60074,2470.67,2023-1-26T11:03:50Z
2023-01-26T09:00:27Z,42.805,6.029,13.3017,4.60076,2470.646,2023-1-26T11:06:53Z
2023-01-26T09:03:30Z,42.805,6.029,13.3021,4.60074,2470.684,2023-1-26T11:09:56Z
2023-01-26T09:06:33Z,42.805,6.029,13.3021,4.60075,2470.646,2023-1-26T11:12:59Z
2023-01-26T09:09:36Z,42.805,6.029,13.3019,4.60076,2470.707,2023-1-26T11:16:03Z
2023-01-26T09:12:39Z,42.805,6.029,13.3023,4.60074,2470.67,2023-1-26T11:19:06Z
2023-01-26T09:15:42Z,42.805,6.029,13.3024,4.60075,2470.67,2023-1-26T11:22:09Z
2023-01-26T09:18:46Z,42.805,6.029,13.3023,4.60077,2470.646,2023-1-26T11:25:12Z
2023-01-26T09:21:49Z,42.805,6.029,13.3021,4.60074,2470.67,2023-1-26T11:28:15Z
2023-01-26T09:24:52Z,42.805,6.029,13.3020,4.60074,2470.693,2023-1-26T11:31:18Z
2023-01-26T09:27:55Z,42.805,6.029,13.3022,4.60074,2470.693,2023-1-26T11:34:21Z
2023-01-26T09:30:58Z,42.805,6.029,13.3021,4.60072,2470.67,2023-1-26T11:37:24Z
2023-01-26T09:34:01Z,42.805,6.029,13.3019,4.60074,2470.707,2023-1-26T11:40:27Z
2023-01-26T09:37:04Z,42.805,6.029,13.3019,4.60074,2470.646,2023-1-26T11:43:30Z
2023-01-26T09:40:07Z,42.805,6.029,13.3020,4.60074,2470.684,2023-1-26T11:46:33Z
2023-01-26T09:43:10Z,42.805,6.029,13.3019,4.60072,2470.707,2023-1-26T11:49:37Z
2023-01-26T09:46:13Z,42.805,6.029,13.3017,4.60072,2470.693,2023-1-26T11:52:40Z
2023-01-26T09:49:16Z,42.805,6.029,13.3019,4.60074,2470.717,2023-1-26T11:55:43Z
2023-01-26T09:52:20Z,42.805,6.029,13.3017,4.60076,2470.693,2023-1-26T11:58:46Z
2023-01-26T09:55:23Z,42.805,6.029,13.3018,4.60072,2470.707,2023-1-26T12:01:49Z
2023-01-26T09:58:26Z,42.805,6.029,13.3016,4.60073,2470.717,2023-1-26T12:04:52Z
2023-01-26T10:01:29Z,42.805,6.029,13.3021,4.60072,2470.717,2023-1-26T12:07:55Z
2023-01-26T10:04:32Z,42.805,6.029,13.3015,4.60072,2470.67,2023-1-26T12:10:58Z
2023-01-26T10:07:35Z,42.805,6.029,13.3020,4.60072,2470.717,2023-1-26T12:14:01Z
2023-01-26T10:10:38Z,42.805,6.029,13.3014,4.60072,2470.74,2023-1-26T12:17:04Z
2023-01-26T10:13:41Z,42.805,6.029,13.3016,4.60072,2470.693,2023-1-26T12:20:07Z
2023-01-26T10:16:44Z,42.805,6.029,13.3021,4.60069,2470.73,2023-1-26T12:23:11Z
2023-01-26T10:19:47Z,42.805,6.029,13.3017,4.60069,2470.684,2023-1-26T12:26:14Z
2023-01-26T10:22:50Z,42.805,6.029,13.3015,4.60072,2470.73,2023-1-26T12:29:17Z
2023-01-26T10:25:53Z,42.805,6.029,13.3021,4.60069,2470.717,2023-1-26T12:32:20Z
2023-01-26T10:28:56Z,42.805,6.029,13.3018,4.60069,2470.693,2023-1-26T12:35:23Z
2023-01-26T10:32:00Z,42.805,6.029,13.3015,4.60069,2470.684,2023-1-26T12:38:26Z
2023-01-26T10:35:03Z,42.805,6.029,13.3018,4.60070,2470.717,2023-1-26T12:41:29Z
2023-01-26T10:38:06Z,42.805,6.029,13.3014,4.60072,2470.67,2023-1-26T12:44:32Z
2023-01-26T10:41:09Z,42.805,6.029,13.3018,4.60072,2470.763,2023-1-26T12:47:35Z
2023-01-26T10:44:12Z,42.805,6.029,13.3017,4.60069,2470.693,2023-1-26T12:50:38Z
2023-01-26T10:47:15Z,42.805,6.029,13.3019,4.60070,2470.717,2023-1-26T12:53:41Z
2023-01-26T10:50:18Z,42.805,6.029,13.3018,4.60072,2470.67,2023-1-26T12:56:44Z
2023-01-26T10:53:21Z,42.805,6.029,13.3020,4.60070,2470.707,2023-1-26T12:59:48Z
2023-01-26T10:56:24Z,42.805,6.029,13.3020,4.60069,2470.717,2023-1-26T13:02:51Z
2023-01-26T10:59:27Z,42.805,6.029,13.3015,4.60072,2470.693,2023-1-26T13:05:54Z
2023-01-26T11:02:30Z,42.805,6.029,13.3020,4.60071,2470.754,2023-1-26T13:08:57Z
2023-01-26T11:05:34Z,42.805,6.029,13.3015,4.60073,2470.693,2023-1-26T13:12:00Z
2023-01-26T11:08:37Z,42.805,6.029,13.3018,4.60074,2470.693,2023-1-26T13:15:03Z
2023-01-26T11:11:40Z,42.805,6.029,13.3017,4.60070,2470.693,2023-1-26T13:18:06Z
2023-01-26T11:14:43Z,42.805,6.029,13.3017,4.60070,2470.67,2023-1-26T13:21:09Z
2023-01-26T11:17:46Z,42.805,6.029,13.3020,4.60072,2470.693,2023-1-26T13:24:12Z
2023-01-26T11:20:49Z,42.805,6.029,13.3019,4.60071,2470.693,2023-1-26T13:27:15Z
2023-01-26T11:23:52Z,42.805,6.029,13.3019,4.60073,2470.693,2023-1-26T13:30:18Z
2023-01-26T11:26:55Z,42.805,6.029,13.3016,4.60073,2470.707,2023-1-26T13:33:22Z
2023-01-26T11:29:58Z,42.805,6.029,13.3019,4.60076,2470.693,2023-1-26T13:36:25Z
2023-01-26T11:33:01Z,42.805,6.029,13.3019,4.60074,2470.67,2023-1-26T13:39:28Z
2023-01-26T11:36:04Z,42.805,6.029,13.3016,4.60069,2470.693,2023-1-26T13:42:31Z
2023-01-26T11:39:08Z,42.805,6.029,13.3019,4.60075,2470.693,2023-1-26T13:45:34Z
2023-01-26T11:42:11Z,42.805,6.029,13.3017,4.60071,2470.67,2023-1-26T13:48:37Z
2023-01-26T11:45:14Z,42.805,6.029,13.3015,4.60071,2470.693,2023-1-26T13:51:40Z
2023-01-26T11:48:17Z,42.805,6.029,13.3019,4.60074,2470.707,2023-1-26T13:54:43Z
2023-01-26T11:51:20Z,42.805,6.029,13.3016,4.60073,2470.67,2023-1-26T13:57:46Z
2023-01-26T11:54:23Z,42.805,6.029,13.3015,4.60072,2470.67,2023-1-26T14:00:49Z
2023-01-26T11:57:26Z,42.805,6.029,13.3015,4.60068,2470.646,2023-1-26T14:03:53Z
2023-01-26T12:00:29Z,42.805,6.029,13.3017,4.60069,2470.684,2023-1-26T14:06:56Z
2023-01-26T12:03:32Z,42.805,6.029,13.3018,4.60069,2470.646,2023-1-26T14:09:59Z
2023-01-26T12:06:35Z,42.805,6.029,13.3014,4.60070,2470.67,2023-1-26T14:13:02Z
2023-01-26T12:09:38Z,42.805,6.029,13.3019,4.60072,2470.646,2023-1-26T14:16:05Z
2023-01-26T12:12:42Z,42.805,6.029,13.3021,4.60070,2470.67,2023-1-26T14:19:08Z
2023-01-26T12:15:45Z,42.805,6.029,13.3019,4.60069,2470.646,2023-1-26T14:22:11Z
2023-01-26T12:18:48Z,42.805,6.029,13.3018,4.60072,2470.684,2023-1-26T14:25:14Z
2023-01-26T12:21:51Z,42.805,6.029,13.3015,4.60071,2470.67,2023-1-26T14:28:17Z
2023-01-26T12:24:54Z,42.805,6.029,13.3019,4.60069,2470.67,2023-1-26T14:31:20Z
2023-01-26T12:27:57Z,42.805,6.029,13.3019,4.60079,2470.684,2023-1-26T14:34:23Z
2023-01-26T12:31:00Z,42.805,6.029,13.3019,4.60074,2470.646,2023-1-26T14:37:27Z
2023-01-26T12:34:03Z,42.805,6.029,13.3019,4.60074,2470.661,2023-1-26T14:40:30Z
2023-01-26T12:37:06Z,42.805,6.029,13.3018,4.60069,2470.67,2023-1-26T14:43:33Z
2023-01-26T12:40:09Z,42.805,6.029,13.3017,4.60073,2470.624,2023-1-26T14:46:36Z
2023-01-26T12:43:12Z,42.805,6.029,13.3016,4.60072,2470.646,2023-1-26T14:49:39Z
2023-01-26T12:46:16Z,42.805,6.029,13.3016,4.60074,2470.646,2023-1-26T14:52:42Z
2023-01-26T12:49:19Z,42.805,6.029,13.3020,4.60072,2470.646,2023-1-26T14:55:45Z
2023-01-26T12:52:22Z,42.805,6.029,13.3019,4.60072,2470.624,2023-1-26T14:58:48Z
2023-01-26T12:55:25Z,42.805,6.029,13.3014,4.60072,2470.614,2023-1-26T15:01:51Z
2023-01-26T12:58:28Z,42.805,6.029,13.3021,4.60078,2470.661,2023-1-26T15:04:54Z
2023-01-26T13:01:31Z,42.805,6.029,13.3015,4.60072,2470.67,2023-1-26T15:07:57Z
2023-01-26T13:04:34Z,42.805,6.029,13.3015,4.60073,2470.661,2023-1-26T15:11:00Z
2023-01-26T13:07:37Z,42.805,6.029,13.3018,4.60072,2470.6,2023-1-26T15:14:04Z
2023-01-26T13:10:40Z,42.805,6.029,13.3021,4.60072,2470.614,2023-1-26T15:17:07Z
2023-01-26T13:13:43Z,42.805,6.029,13.3015,4.60070,2470.624,2023-1-26T15:20:10Z
2023-01-26T13:16:46Z,42.805,6.029,13.3019,4.60070,2470.6,2023-1-26T15:23:13Z
2023-01-26T13:19:50Z,42.805,6.029,13.3016,4.60074,2470.6,2023-1-26T15:26:16Z
2023-01-26T13:22:53Z,42.805,6.029,13.3021,4.60073,2470.624,2023-1-26T15:29:19Z
2023-01-26T13:25:56Z,42.805,6.029,13.3013,4.60074,2470.563,2023-1-26T15:32:22Z
2023-01-26T13:28:59Z,42.805,6.029,13.3017,4.60074,2470.6,2023-1-26T15:35:25Z
2023-01-26T13:32:02Z,42.805,6.029,13.3015,4.60071,2470.6,2023-1-26T15:38:28Z
2023-01-26T13:35:05Z,42.805,6.029,13.3013,4.60069,2470.61,2023-1-26T15:41:31Z
2023-01-26T13:38:08Z,42.805,6.029,13.3019,4.60072,2470.6,2023-1-26T15:44:34Z
2023-01-26T13:41:11Z,42.805,6.029,13.3017,4.60074,2470.624,2023-1-26T15:47:38Z
2023-01-26T13:44:14Z,42.805,6.029,13.3019,4.60070,2470.614,2023-1-26T15:50:41Z
2023-01-26T13:47:17Z,42.805,6.029,13.3018,4.60073,2470.614,2023-1-26T15:53:44Z
2023-01-26T13:50:20Z,42.805,6.029,13.3015,4.60074,2470.6,2023-1-26T15:56:47Z
2023-01-26T13:53:24Z,42.805,6.029,13.3016,4.60070,2470.6,2023-1-26T15:59:50Z
2023-01-26T13:56:27Z,42.805,6.029,13.3016,4.60073,2470.6,2023-1-26T16:02:53Z
2023-01-26T13:59:30Z,42.805,6.029,13.3019,4.60072,2470.553,2023-1-26T16:05:56Z
2023-01-26T14:02:33Z,42.805,6.029,13.3019,4.60069,2470.577,2023-1-26T16:08:59Z
2023-01-26T14:05:36Z,42.805,6.029,13.3016,4.60074,2470.614,2023-1-26T16:12:02Z
2023-01-26T14:08:39Z,42.805,6.029,13.3016,4.60072,2470.567,2023-1-26T16:15:05Z
2023-01-26T14:11:42Z,42.805,6.029,13.3021,4.60074,2470.591,2023-1-26T16:18:09Z
2023-01-26T14:14:45Z,42.805,6.029,13.3018,4.60075,2470.591,2023-1-26T16:21:12Z
2023-01-26T14:17:48Z,42.805,6.029,13.3019,4.60076,2470.577,2023-1-26T16:24:15Z
2023-01-26T14:20:51Z,42.805,6.029,13.3017,4.60074,2470.577,2023-1-26T16:27:18Z
2023-01-26T14:23:54Z,42.805,6.029,13.3015,4.60072,2470.614,2023-1-26T16:30:21Z
2023-01-26T14:26:57Z,42.805,6.029,13.3018,4.60074,2470.553,2023-1-26T16:33:24Z
2023-01-26T14:30:01Z,42.805,6.029,13.3016,4.60073,2470.567,2023-1-26T16:36:27Z
2023-01-26T14:33:04Z,42.805,6.029,13.3017,4.60072,2470.553,2023-1-26T16:39:30Z
2023-01-26T14:36:07Z,42.805,6.029,13.3018,4.60070,2470.6,2023-1-26T16:42:33Z
2023-01-26T14:39:10Z,42.805,6.029,13.3015,4.60072,2470.567,2023-1-26T16:45:36Z
2023-01-26T14:42:13Z,42.805,6.029,13.3018,4.60072,2470.577,2023-1-26T16:48:39Z
2023-01-26T14:45:16Z,42.805,6.029,13.3016,4.60072,2470.577,2023-1-26T16:51:43Z
2023-01-26T14:48:19Z,42.805,6.029,13.3014,4.60070,2470.53,2023-1-26T16:54:46Z
2023-01-26T14:51:22Z,42.805,6.029,13.3017,4.60072,2470.567,2023-1-26T16:57:49Z
2023-01-26T14:54:25Z,42.805,6.029,13.3015,4.60074,2470.553,2023-1-26T17:00:52Z
2023-01-26T14:57:28Z,42.805,6.029,13.3019,4.60072,2470.553,2023-1-26T17:03:55Z
2023-01-26T15:00:32Z,42.805,6.029,13.3017,4.60077,2470.553,2023-1-26T17:06:58Z
2023-01-26T15:03:35Z,42.805,6.029,13.3020,4.60074,2470.53,2023-1-26T17:10:01Z
2023-01-26T15:06:38Z,42.805,6.029,13.3014,4.60073,2470.567,2023-1-26T17:13:04Z
2023-01-26T15:09:41Z,42.805,6.029,13.3017,4.60072,2470.544,2023-1-26T17:16:07Z
2023-01-26T15:12:44Z,42.805,6.029,13.3019,4.60072,2470.544,2023-1-26T17:19:10Z